contact:dominique.lefevre@mio.osupytheas.fr, maurice.libes@osupytheas.fr, didier.mallarino@osupytheas.fr
Project:EMSO http://www.emso-fr.org/EMSO-France
Depth: 2436.0 m
Title:EMSO Ligure Ouest : Data MII capteur MICROCAT
DateTime_Computer,Latitude,Longitude,Temperature,Conductivity,Pressure,DateTime_Instrument
DateTime_Computer,Latitude,Longitude,degC,S m-1,dbar,DateTime_Instrument
2021-01-02T00:01:39Z,42.805,6.029,13.2986,4.59989,2470.11,2021-1-02T02:02:39Z
2021-01-02T00:04:42Z,42.805,6.029,13.2985,4.59990,2470.156,2021-1-02T02:05:43Z
2021-01-02T00:07:45Z,42.805,6.029,13.2995,4.59989,2470.11,2021-1-02T02:08:46Z
2021-01-02T00:10:48Z,42.805,6.029,13.2987,4.59988,2470.156,2021-1-02T02:11:49Z
2021-01-02T00:13:52Z,42.805,6.029,13.2983,4.59989,2470.147,2021-1-02T02:14:52Z
2021-01-02T00:16:55Z,42.805,6.029,13.2986,4.59986,2470.147,2021-1-02T02:17:55Z
2021-01-02T00:19:58Z,42.805,6.029,13.2986,4.59990,2470.11,2021-1-02T02:20:58Z
2021-01-02T00:23:01Z,42.805,6.029,13.2987,4.59992,2470.11,2021-1-02T02:24:01Z
2021-01-02T00:26:04Z,42.805,6.029,13.2986,4.59991,2470.133,2021-1-02T02:27:04Z
2021-01-02T00:29:07Z,42.805,6.029,13.2982,4.59992,2470.11,2021-1-02T02:30:07Z
2021-01-02T00:32:10Z,42.805,6.029,13.2985,4.59988,2470.124,2021-1-02T02:33:11Z
2021-01-02T00:35:13Z,42.805,6.029,13.2987,4.59988,2470.147,2021-1-02T02:36:14Z
2021-01-02T00:38:17Z,42.805,6.029,13.2981,4.59988,2470.1,2021-1-02T02:39:17Z
2021-01-02T00:41:20Z,42.805,6.029,13.2988,4.59988,2470.147,2021-1-02T02:42:20Z
2021-01-02T00:44:23Z,42.805,6.029,13.2990,4.59997,2470.124,2021-1-02T02:45:23Z
2021-01-02T00:47:26Z,42.805,6.029,13.2984,4.59988,2470.11,2021-1-02T02:48:26Z
2021-01-02T00:50:29Z,42.805,6.029,13.2982,4.59993,2470.1,2021-1-02T02:51:29Z
2021-01-02T00:53:32Z,42.805,6.029,13.2983,4.59990,2470.1,2021-1-02T02:54:32Z
2021-01-02T00:56:35Z,42.805,6.029,13.2983,4.59991,2470.124,2021-1-02T02:57:36Z
2021-01-02T00:59:38Z,42.805,6.029,13.2986,4.59989,2470.1,2021-1-02T03:00:39Z
2021-01-02T01:02:41Z,42.805,6.029,13.2979,4.59998,2470.1,2021-1-02T03:03:42Z
2021-01-02T01:05:45Z,42.805,6.029,13.2982,4.59992,2470.087,2021-1-02T03:06:45Z
2021-01-02T01:08:48Z,42.805,6.029,13.2979,4.59990,2470.124,2021-1-02T03:09:48Z
2021-01-02T01:11:51Z,42.805,6.029,13.2982,4.59994,2470.1,2021-1-02T03:12:51Z
2021-01-02T01:14:54Z,42.805,6.029,13.2984,4.59989,2470.087,2021-1-02T03:15:54Z
2021-01-02T01:17:57Z,42.805,6.029,13.2982,4.59988,2470.1,2021-1-02T03:18:57Z
2021-01-02T01:21:00Z,42.805,6.029,13.2979,4.59993,2470.11,2021-1-02T03:22:00Z
2021-01-02T01:24:03Z,42.805,6.029,13.2986,4.59993,2470.087,2021-1-02T03:25:04Z
2021-01-02T01:27:06Z,42.805,6.029,13.2984,4.59991,2470.04,2021-1-02T03:28:07Z
2021-01-02T01:30:09Z,42.805,6.029,13.2986,4.59990,2470.1,2021-1-02T03:31:10Z
2021-01-02T01:33:13Z,42.805,6.029,13.2984,4.59988,2470.087,2021-1-02T03:34:13Z
2021-01-02T01:36:16Z,42.805,6.029,13.2985,4.59992,2470.087,2021-1-02T03:37:16Z
2021-01-02T01:39:19Z,42.805,6.029,13.2984,4.59988,2470.124,2021-1-02T03:40:19Z
2021-01-02T01:42:22Z,42.805,6.029,13.2984,4.59995,2470.063,2021-1-02T03:43:22Z
2021-01-02T01:45:25Z,42.805,6.029,13.2983,4.59991,2470.087,2021-1-02T03:46:25Z
2021-01-02T01:48:28Z,42.805,6.029,13.2981,4.59991,2470.053,2021-1-02T03:49:29Z
2021-01-02T01:51:31Z,42.805,6.029,13.2985,4.59989,2470.077,2021-1-02T03:52:32Z
2021-01-02T01:54:34Z,42.805,6.029,13.2982,4.59994,2470.063,2021-1-02T03:55:35Z
2021-01-02T01:57:37Z,42.805,6.029,13.2983,4.59993,2470.063,2021-1-02T03:58:38Z
2021-01-02T02:00:41Z,42.805,6.029,13.2984,4.59988,2470.063,2021-1-02T04:01:41Z
2021-01-02T02:03:44Z,42.805,6.029,13.2980,4.59993,2470.063,2021-1-02T04:04:44Z
2021-01-02T02:06:47Z,42.805,6.029,13.2989,4.59991,2470.063,2021-1-02T04:07:47Z
2021-01-02T02:09:50Z,42.805,6.029,13.2989,4.59992,2470.026,2021-1-02T04:10:50Z
2021-01-02T02:12:53Z,42.805,6.029,13.2980,4.59988,2470.063,2021-1-02T04:13:53Z
2021-01-02T02:15:56Z,42.805,6.029,13.2982,4.59987,2470.063,2021-1-02T04:16:57Z
2021-01-02T02:18:59Z,42.805,6.029,13.2985,4.59987,2470.04,2021-1-02T04:20:00Z
2021-01-02T02:22:02Z,42.805,6.029,13.2983,4.59990,2470.04,2021-1-02T04:23:03Z
2021-01-02T02:25:06Z,42.805,6.029,13.2978,4.59991,2470.063,2021-1-02T04:26:06Z
2021-01-02T02:28:09Z,42.805,6.029,13.2983,4.59991,2470.063,2021-1-02T04:29:09Z
2021-01-02T02:31:12Z,42.805,6.029,13.2983,4.59991,2470.063,2021-1-02T04:32:12Z
2021-01-02T02:34:15Z,42.805,6.029,13.2980,4.59990,2470.087,2021-1-02T04:35:15Z
2021-01-02T02:37:18Z,42.805,6.029,13.2980,4.59994,2470.077,2021-1-02T04:38:18Z
2021-01-02T02:40:21Z,42.805,6.029,13.2983,4.59991,2470.063,2021-1-02T04:41:22Z
2021-01-02T02:43:24Z,42.805,6.029,13.2986,4.59991,2470.04,2021-1-02T04:44:25Z
2021-01-02T02:46:27Z,42.805,6.029,13.2981,4.59991,2470.063,2021-1-02T04:47:28Z
2021-01-02T02:49:30Z,42.805,6.029,13.2982,4.59989,2470.04,2021-1-02T04:50:31Z
2021-01-02T02:52:34Z,42.805,6.029,13.2983,4.59989,2470.053,2021-1-02T04:53:34Z
2021-01-02T02:55:37Z,42.805,6.029,13.2984,4.59989,2470.04,2021-1-02T04:56:37Z
2021-01-02T02:58:40Z,42.805,6.029,13.2983,4.59990,2470.11,2021-1-02T04:59:40Z
2021-01-02T03:01:43Z,42.805,6.029,13.2978,4.59989,2470.087,2021-1-02T05:02:43Z
2021-01-02T03:04:46Z,42.805,6.029,13.2984,4.59992,2470.017,2021-1-02T05:05:46Z
2021-01-02T03:07:49Z,42.805,6.029,13.2983,4.59990,2470.049,2021-1-02T05:08:50Z
2021-01-02T03:10:52Z,42.805,6.029,13.2984,4.59989,2470.077,2021-1-02T05:11:53Z
2021-01-02T03:13:55Z,42.805,6.029,13.2981,4.59987,2470.063,2021-1-02T05:14:56Z
2021-01-02T03:16:59Z,42.805,6.029,13.2986,4.59989,2470.063,2021-1-02T05:17:59Z
2021-01-02T03:20:02Z,42.805,6.029,13.2981,4.59990,2470.077,2021-1-02T05:21:02Z
2021-01-02T03:23:05Z,42.805,6.029,13.2982,4.59989,2470.04,2021-1-02T05:24:05Z
2021-01-02T03:26:08Z,42.805,6.029,13.2982,4.59988,2470.053,2021-1-02T05:27:08Z
2021-01-02T03:29:11Z,42.805,6.029,13.2983,4.59987,2470.04,2021-1-02T05:30:11Z
2021-01-02T03:32:14Z,42.805,6.029,13.2979,4.59987,2470.026,2021-1-02T05:33:15Z
2021-01-02T03:35:17Z,42.805,6.029,13.2983,4.59989,2470.053,2021-1-02T05:36:18Z
2021-01-02T03:38:20Z,42.805,6.029,13.2984,4.59988,2470.063,2021-1-02T05:39:21Z
2021-01-02T03:41:23Z,42.805,6.029,13.2985,4.59990,2470.077,2021-1-02T05:42:24Z
2021-01-02T03:44:27Z,42.805,6.029,13.2982,4.59989,2470.017,2021-1-02T05:45:27Z
2021-01-02T03:47:30Z,42.805,6.029,13.2985,4.59989,2470.077,2021-1-02T05:48:30Z
2021-01-02T03:50:33Z,42.805,6.029,13.2986,4.59988,2470.1,2021-1-02T05:51:33Z
2021-01-02T03:53:36Z,42.805,6.029,13.2983,4.59990,2470.077,2021-1-02T05:54:36Z
2021-01-02T03:56:39Z,42.805,6.029,13.2983,4.59990,2470.077,2021-1-02T05:57:39Z
2021-01-02T03:59:42Z,42.805,6.029,13.2984,4.59988,2470.04,2021-1-02T06:00:43Z
2021-01-02T04:02:45Z,42.805,6.029,13.2982,4.59987,2470.077,2021-1-02T06:03:46Z
2021-01-02T04:05:48Z,42.805,6.029,13.2984,4.59988,2470.063,2021-1-02T06:06:49Z
2021-01-02T04:08:52Z,42.805,6.029,13.2983,4.59988,2470.053,2021-1-02T06:09:52Z
2021-01-02T04:11:55Z,42.805,6.029,13.2984,4.59988,2470.077,2021-1-02T06:12:55Z
2021-01-02T04:14:58Z,42.805,6.029,13.2982,4.59987,2470.11,2021-1-02T06:15:58Z
2021-01-02T04:18:01Z,42.805,6.029,13.2985,4.59988,2470.077,2021-1-02T06:19:01Z
2021-01-02T04:21:04Z,42.805,6.029,13.2983,4.59986,2470.087,2021-1-02T06:22:04Z
2021-01-02T04:24:07Z,42.805,6.029,13.2984,4.59988,2470.077,2021-1-02T06:25:07Z
2021-01-02T04:27:10Z,42.805,6.029,13.2985,4.59986,2470.063,2021-1-02T06:28:11Z
2021-01-02T04:30:13Z,42.805,6.029,13.2981,4.59989,2470.049,2021-1-02T06:31:14Z
2021-01-02T04:33:16Z,42.805,6.029,13.2982,4.59989,2470.077,2021-1-02T06:34:17Z
2021-01-02T04:36:20Z,42.805,6.029,13.2985,4.59989,2470.087,2021-1-02T06:37:20Z
2021-01-02T04:39:23Z,42.805,6.029,13.2986,4.59988,2470.077,2021-1-02T06:40:23Z
2021-01-02T04:42:26Z,42.805,6.029,13.2984,4.59986,2470.063,2021-1-02T06:43:26Z
2021-01-02T04:45:29Z,42.805,6.029,13.2987,4.59987,2470.11,2021-1-02T06:46:29Z
2021-01-02T04:48:32Z,42.805,6.029,13.2982,4.59987,2470.124,2021-1-02T06:49:32Z
2021-01-02T04:51:35Z,42.805,6.029,13.2985,4.59987,2470.077,2021-1-02T06:52:36Z
2021-01-02T04:54:38Z,42.805,6.029,13.2983,4.59988,2470.077,2021-1-02T06:55:39Z
2021-01-02T04:57:41Z,42.805,6.029,13.2983,4.59988,2470.087,2021-1-02T06:58:42Z
2021-01-02T05:00:45Z,42.805,6.029,13.2985,4.59988,2470.11,2021-1-02T07:01:45Z
2021-01-02T05:03:48Z,42.805,6.029,13.2985,4.59990,2470.063,2021-1-02T07:04:48Z
2021-01-02T05:06:51Z,42.805,6.029,13.2984,4.59986,2470.1,2021-1-02T07:07:51Z
2021-01-02T05:09:54Z,42.805,6.029,13.2982,4.59988,2470.087,2021-1-02T07:10:54Z
2021-01-02T05:12:57Z,42.805,6.029,13.2983,4.59988,2470.119,2021-1-02T07:13:57Z
2021-01-02T05:16:00Z,42.805,6.029,13.2984,4.59986,2470.124,2021-1-02T07:17:00Z
2021-01-02T05:19:03Z,42.805,6.029,13.2983,4.59989,2470.087,2021-1-02T07:20:04Z
2021-01-02T05:22:06Z,42.805,6.029,13.2980,4.59988,2470.124,2021-1-02T07:23:07Z
2021-01-02T05:25:09Z,42.805,6.029,13.2983,4.59988,2470.087,2021-1-02T07:26:10Z
2021-01-02T05:28:13Z,42.805,6.029,13.2982,4.59988,2470.11,2021-1-02T07:29:13Z
2021-01-02T05:31:16Z,42.805,6.029,13.2983,4.59988,2470.11,2021-1-02T07:32:16Z
2021-01-02T05:34:19Z,42.805,6.029,13.2983,4.59988,2470.11,2021-1-02T07:35:19Z
2021-01-02T05:37:22Z,42.805,6.029,13.2985,4.59987,2470.11,2021-1-02T07:38:22Z
2021-01-02T05:40:25Z,42.805,6.029,13.2985,4.59987,2470.147,2021-1-02T07:41:25Z
2021-01-02T05:43:28Z,42.805,6.029,13.2984,4.59989,2470.087,2021-1-02T07:44:29Z
2021-01-02T05:46:31Z,42.805,6.029,13.2983,4.59987,2470.133,2021-1-02T07:47:32Z
2021-01-02T05:49:34Z,42.805,6.029,13.2983,4.59987,2470.11,2021-1-02T07:50:35Z
2021-01-02T05:52:38Z,42.805,6.029,13.2983,4.59991,2470.1,2021-1-02T07:53:38Z
2021-01-02T05:55:41Z,42.805,6.029,13.2986,4.59989,2470.133,2021-1-02T07:56:41Z
2021-01-02T05:58:44Z,42.805,6.029,13.2980,4.59988,2470.124,2021-1-02T07:59:44Z
2021-01-02T06:01:47Z,42.805,6.029,13.2976,4.59987,2470.133,2021-1-02T08:02:47Z
2021-01-02T06:04:50Z,42.805,6.029,13.2983,4.59988,2470.133,2021-1-02T08:05:50Z
2021-01-02T06:07:53Z,42.805,6.029,13.2986,4.59987,2470.156,2021-1-02T08:08:53Z
2021-01-02T06:10:56Z,42.805,6.029,13.2984,4.59989,2470.133,2021-1-02T08:11:57Z
2021-01-02T06:13:59Z,42.805,6.029,13.2978,4.59987,2470.18,2021-1-02T08:15:00Z
2021-01-02T06:17:02Z,42.805,6.029,13.2986,4.59988,2470.194,2021-1-02T08:18:03Z
2021-01-02T06:20:06Z,42.805,6.029,13.2983,4.59988,2470.096,2021-1-02T08:21:06Z
2021-01-02T06:23:09Z,42.805,6.029,13.2986,4.59988,2470.194,2021-1-02T08:24:09Z
2021-01-02T06:26:12Z,42.805,6.029,13.2985,4.59987,2470.156,2021-1-02T08:27:12Z
2021-01-02T06:29:15Z,42.805,6.029,13.2982,4.59987,2470.189,2021-1-02T08:30:15Z
2021-01-02T06:32:18Z,42.805,6.029,13.2983,4.59988,2470.194,2021-1-02T08:33:18Z
2021-01-02T06:35:21Z,42.805,6.029,13.2983,4.59986,2470.171,2021-1-02T08:36:22Z
2021-01-02T06:38:24Z,42.805,6.029,13.2982,4.59986,2470.194,2021-1-02T08:39:25Z
2021-01-02T06:41:27Z,42.805,6.029,13.2986,4.59987,2470.156,2021-1-02T08:42:28Z
2021-01-02T06:44:31Z,42.805,6.029,13.2980,4.59987,2470.18,2021-1-02T08:45:31Z
2021-01-02T06:47:34Z,42.805,6.029,13.2984,4.59986,2470.194,2021-1-02T08:48:34Z
2021-01-02T06:50:37Z,42.805,6.029,13.2981,4.59986,2470.203,2021-1-02T08:51:37Z
2021-01-02T06:53:40Z,42.805,6.029,13.2986,4.59986,2470.18,2021-1-02T08:54:40Z
2021-01-02T06:56:43Z,42.805,6.029,13.2981,4.59987,2470.18,2021-1-02T08:57:43Z
2021-01-02T06:59:46Z,42.805,6.029,13.2984,4.59986,2470.18,2021-1-02T09:00:46Z
2021-01-02T07:02:49Z,42.805,6.029,13.2980,4.59986,2470.227,2021-1-02T09:03:50Z
2021-01-02T07:05:52Z,42.805,6.029,13.2982,4.59986,2470.227,2021-1-02T09:06:53Z
2021-01-02T07:08:55Z,42.805,6.029,13.2983,4.59986,2470.203,2021-1-02T09:09:56Z
2021-01-02T07:11:59Z,42.805,6.029,13.2981,4.59988,2470.24,2021-1-02T09:12:59Z
2021-01-02T07:15:02Z,42.805,6.029,13.2981,4.59988,2470.227,2021-1-02T09:16:02Z
2021-01-02T07:18:05Z,42.805,6.029,13.2983,4.59988,2470.227,2021-1-02T09:19:05Z
2021-01-02T07:21:08Z,42.805,6.029,13.2984,4.59987,2470.24,2021-1-02T09:22:08Z
2021-01-02T07:24:11Z,42.805,6.029,13.2983,4.59987,2470.227,2021-1-02T09:25:11Z
2021-01-02T07:27:14Z,42.805,6.029,13.2987,4.59986,2470.227,2021-1-02T09:28:15Z
2021-01-02T07:30:17Z,42.805,6.029,13.2984,4.59986,2470.24,2021-1-02T09:31:18Z
2021-01-02T07:33:20Z,42.805,6.029,13.2981,4.59987,2470.227,2021-1-02T09:34:21Z
2021-01-02T07:36:24Z,42.805,6.029,13.2982,4.59987,2470.25,2021-1-02T09:37:24Z
2021-01-02T07:39:27Z,42.805,6.029,13.2979,4.59988,2470.25,2021-1-02T09:40:27Z
2021-01-02T07:42:30Z,42.805,6.029,13.2984,4.59987,2470.264,2021-1-02T09:43:30Z
2021-01-02T07:45:33Z,42.805,6.029,13.2985,4.59987,2470.287,2021-1-02T09:46:33Z
2021-01-02T07:48:36Z,42.805,6.029,13.2982,4.59987,2470.264,2021-1-02T09:49:36Z
2021-01-02T07:51:39Z,42.805,6.029,13.2981,4.59986,2470.264,2021-1-02T09:52:40Z
2021-01-02T07:54:42Z,42.805,6.029,13.2983,4.59988,2470.273,2021-1-02T09:55:43Z
2021-01-02T07:57:45Z,42.805,6.029,13.2986,4.59988,2470.273,2021-1-02T09:58:46Z
2021-01-02T08:00:49Z,42.805,6.029,13.2983,4.59987,2470.297,2021-1-02T10:01:49Z
2021-01-02T08:03:52Z,42.805,6.029,13.2982,4.59986,2470.273,2021-1-02T10:04:52Z
2021-01-02T08:06:55Z,42.805,6.029,13.2986,4.59987,2470.273,2021-1-02T10:07:55Z
2021-01-02T08:09:58Z,42.805,6.029,13.2985,4.59987,2470.297,2021-1-02T10:10:58Z
2021-01-02T08:13:01Z,42.805,6.029,13.2986,4.59987,2470.31,2021-1-02T10:14:01Z
2021-01-02T08:16:04Z,42.805,6.029,13.2986,4.59991,2470.297,2021-1-02T10:17:05Z
2021-01-02T08:19:07Z,42.805,6.029,13.2984,4.59990,2470.297,2021-1-02T10:20:08Z
2021-01-02T08:22:10Z,42.805,6.029,13.2985,4.59989,2470.297,2021-1-02T10:23:11Z
2021-01-02T08:25:14Z,42.805,6.029,13.2983,4.59987,2470.287,2021-1-02T10:26:14Z
2021-01-02T08:28:17Z,42.805,6.029,13.2986,4.59988,2470.31,2021-1-02T10:29:17Z
2021-01-02T08:31:20Z,42.805,6.029,13.2986,4.59988,2470.273,2021-1-02T10:32:20Z
2021-01-02T08:34:23Z,42.805,6.029,13.2986,4.59989,2470.297,2021-1-02T10:35:23Z
2021-01-02T08:37:26Z,42.805,6.029,13.2988,4.59990,2470.297,2021-1-02T10:38:26Z
2021-01-02T08:40:29Z,42.805,6.029,13.2986,4.59990,2470.31,2021-1-02T10:41:29Z
2021-01-02T08:43:32Z,42.805,6.029,13.2985,4.59992,2470.297,2021-1-02T10:44:33Z
2021-01-02T08:46:35Z,42.805,6.029,13.2987,4.59989,2470.297,2021-1-02T10:47:36Z
2021-01-02T08:49:39Z,42.805,6.029,13.2985,4.59988,2470.297,2021-1-02T10:50:39Z
2021-01-02T08:52:42Z,42.805,6.029,13.2985,4.59988,2470.32,2021-1-02T10:53:42Z
2021-01-02T08:55:45Z,42.805,6.029,13.2983,4.59990,2470.297,2021-1-02T10:56:45Z
2021-01-02T08:58:48Z,42.805,6.029,13.2983,4.59988,2470.297,2021-1-02T10:59:48Z
2021-01-02T09:01:51Z,42.805,6.029,13.2985,4.59990,2470.31,2021-1-02T11:02:51Z
2021-01-02T09:04:54Z,42.805,6.029,13.2983,4.59988,2470.32,2021-1-02T11:05:54Z
2021-01-02T09:07:57Z,42.805,6.029,13.2984,4.59988,2470.273,2021-1-02T11:08:58Z
2021-01-02T09:11:00Z,42.805,6.029,13.2986,4.59991,2470.32,2021-1-02T11:12:01Z
2021-01-02T09:14:03Z,42.805,6.029,13.2986,4.59989,2470.31,2021-1-02T11:15:04Z
2021-01-02T09:17:07Z,42.805,6.029,13.2984,4.59988,2470.32,2021-1-02T11:18:07Z
2021-01-02T09:20:10Z,42.805,6.029,13.2990,4.59991,2470.32,2021-1-02T11:21:10Z
2021-01-02T09:23:13Z,42.805,6.029,13.2989,4.59991,2470.31,2021-1-02T11:24:13Z
2021-01-02T09:26:16Z,42.805,6.029,13.2986,4.59991,2470.334,2021-1-02T11:27:16Z
2021-01-02T09:29:19Z,42.805,6.029,13.2986,4.59989,2470.273,2021-1-02T11:30:19Z
2021-01-02T09:32:22Z,42.805,6.029,13.2986,4.59989,2470.334,2021-1-02T11:33:23Z
2021-01-02T09:35:25Z,42.805,6.029,13.2988,4.59989,2470.297,2021-1-02T11:36:26Z
2021-01-02T09:38:28Z,42.805,6.029,13.2991,4.59990,2470.32,2021-1-02T11:39:29Z
2021-01-02T09:41:32Z,42.805,6.029,13.2989,4.59990,2470.32,2021-1-02T11:42:32Z
2021-01-02T09:44:35Z,42.805,6.029,13.2984,4.59991,2470.32,2021-1-02T11:45:35Z
2021-01-02T09:47:38Z,42.805,6.029,13.2989,4.59990,2470.297,2021-1-02T11:48:38Z
2021-01-02T09:50:41Z,42.805,6.029,13.2986,4.59991,2470.334,2021-1-02T11:51:41Z
2021-01-02T09:53:44Z,42.805,6.029,13.2990,4.59989,2470.297,2021-1-02T11:54:44Z
2021-01-02T09:56:47Z,42.805,6.029,13.2989,4.59988,2470.32,2021-1-02T11:57:48Z
2021-01-02T09:59:50Z,42.805,6.029,13.2991,4.59993,2470.32,2021-1-02T12:00:51Z
2021-01-02T10:02:53Z,42.805,6.029,13.2987,4.59989,2470.297,2021-1-02T12:03:54Z
2021-01-02T10:05:57Z,42.805,6.029,13.2985,4.59989,2470.297,2021-1-02T12:06:57Z
2021-01-02T10:09:00Z,42.805,6.029,13.2989,4.59991,2470.287,2021-1-02T12:10:00Z
2021-01-02T10:12:03Z,42.805,6.029,13.2986,4.59988,2470.297,2021-1-02T12:13:03Z
2021-01-02T10:15:06Z,42.805,6.029,13.2984,4.59989,2470.334,2021-1-02T12:16:06Z
2021-01-02T10:18:09Z,42.805,6.029,13.2988,4.59991,2470.297,2021-1-02T12:19:09Z
2021-01-02T10:21:12Z,42.805,6.029,13.2984,4.59990,2470.297,2021-1-02T12:22:13Z
2021-01-02T10:24:15Z,42.805,6.029,13.2987,4.59988,2470.297,2021-1-02T12:25:16Z
2021-01-02T10:27:18Z,42.805,6.029,13.2985,4.59990,2470.32,2021-1-02T12:28:19Z
2021-01-02T10:30:22Z,42.805,6.029,13.2986,4.59988,2470.273,2021-1-02T12:31:22Z
2021-01-02T10:33:25Z,42.805,6.029,13.2985,4.59989,2470.297,2021-1-02T12:34:25Z
2021-01-02T10:36:28Z,42.805,6.029,13.2986,4.59990,2470.31,2021-1-02T12:37:28Z
2021-01-02T10:39:31Z,42.805,6.029,13.2986,4.59988,2470.273,2021-1-02T12:40:31Z
2021-01-02T10:42:34Z,42.805,6.029,13.2986,4.59989,2470.273,2021-1-02T12:43:34Z
2021-01-02T10:45:37Z,42.805,6.029,13.2984,4.59988,2470.31,2021-1-02T12:46:38Z
2021-01-02T10:48:40Z,42.805,6.029,13.2985,4.59988,2470.31,2021-1-02T12:49:41Z
2021-01-02T10:51:43Z,42.805,6.029,13.2986,4.59988,2470.32,2021-1-02T12:52:44Z
2021-01-02T10:54:47Z,42.805,6.029,13.2982,4.59988,2470.273,2021-1-02T12:55:47Z
2021-01-02T10:57:50Z,42.805,6.029,13.2983,4.59991,2470.31,2021-1-02T12:58:50Z
2021-01-02T11:00:53Z,42.805,6.029,13.2986,4.59988,2470.297,2021-1-02T13:01:53Z
2021-01-02T11:03:56Z,42.805,6.029,13.2981,4.59988,2470.273,2021-1-02T13:04:56Z
2021-01-02T11:06:59Z,42.805,6.029,13.2987,4.59989,2470.273,2021-1-02T13:07:59Z
2021-01-02T11:10:02Z,42.805,6.029,13.2986,4.59993,2470.297,2021-1-02T13:11:03Z
2021-01-02T11:13:05Z,42.805,6.029,13.2986,4.59992,2470.297,2021-1-02T13:14:06Z
2021-01-02T11:16:08Z,42.805,6.029,13.2986,4.59988,2470.297,2021-1-02T13:17:09Z
2021-01-02T11:19:12Z,42.805,6.029,13.2982,4.59988,2470.273,2021-1-02T13:20:12Z
2021-01-02T11:22:15Z,42.805,6.029,13.2986,4.59994,2470.287,2021-1-02T13:23:15Z
2021-01-02T11:25:18Z,42.805,6.029,13.2989,4.59989,2470.24,2021-1-02T13:26:18Z
2021-01-02T11:28:21Z,42.805,6.029,13.2989,4.59988,2470.264,2021-1-02T13:29:21Z
2021-01-02T11:31:24Z,42.805,6.029,13.2983,4.59988,2470.25,2021-1-02T13:32:24Z
2021-01-02T11:34:27Z,42.805,6.029,13.2982,4.59988,2470.25,2021-1-02T13:35:27Z
2021-01-02T11:37:30Z,42.805,6.029,13.2983,4.59989,2470.264,2021-1-02T13:38:31Z
2021-01-02T11:40:33Z,42.805,6.029,13.2982,4.59988,2470.264,2021-1-02T13:41:34Z
2021-01-02T11:43:36Z,42.805,6.029,13.2983,4.59993,2470.264,2021-1-02T13:44:37Z
2021-01-02T11:46:40Z,42.805,6.029,13.2984,4.59991,2470.264,2021-1-02T13:47:40Z
2021-01-02T11:49:43Z,42.805,6.029,13.2983,4.59988,2470.264,2021-1-02T13:50:43Z
2021-01-02T11:52:46Z,42.805,6.029,13.2990,4.59988,2470.227,2021-1-02T13:53:46Z
2021-01-02T11:55:49Z,42.805,6.029,13.2986,4.59988,2470.25,2021-1-02T13:56:49Z
2021-01-02T11:58:52Z,42.805,6.029,13.2987,4.59988,2470.25,2021-1-02T13:59:53Z
2021-01-02T12:01:55Z,42.805,6.029,13.2987,4.59989,2470.227,2021-1-02T14:02:56Z
2021-01-02T12:04:58Z,42.805,6.029,13.2986,4.59988,2470.25,2021-1-02T14:05:59Z
2021-01-02T12:08:01Z,42.805,6.029,13.2986,4.59994,2470.25,2021-1-02T14:09:02Z
2021-01-02T12:11:05Z,42.805,6.029,13.2986,4.59989,2470.25,2021-1-02T14:12:05Z
2021-01-02T12:14:08Z,42.805,6.029,13.2986,4.59989,2470.24,2021-1-02T14:15:08Z
2021-01-02T12:17:11Z,42.805,6.029,13.2990,4.59990,2470.217,2021-1-02T14:18:11Z
2021-01-02T12:20:14Z,42.805,6.029,13.2986,4.59989,2470.24,2021-1-02T14:21:14Z
2021-01-02T12:23:17Z,42.805,6.029,13.2981,4.59988,2470.227,2021-1-02T14:24:17Z
2021-01-02T12:26:20Z,42.805,6.029,13.2984,4.59989,2470.18,2021-1-02T14:27:21Z
2021-01-02T12:29:23Z,42.805,6.029,13.2987,4.59989,2470.227,2021-1-02T14:30:24Z
2021-01-02T12:32:26Z,42.805,6.029,13.2986,4.59991,2470.203,2021-1-02T14:33:27Z
2021-01-02T12:35:30Z,42.805,6.029,13.2983,4.59988,2470.203,2021-1-02T14:36:30Z
2021-01-02T12:38:33Z,42.805,6.029,13.2989,4.59989,2470.203,2021-1-02T14:39:33Z
2021-01-02T12:41:36Z,42.805,6.029,13.2986,4.59991,2470.203,2021-1-02T14:42:36Z
2021-01-02T12:44:39Z,42.805,6.029,13.2984,4.59990,2470.217,2021-1-02T14:45:39Z
2021-01-02T12:47:42Z,42.805,6.029,13.2986,4.59989,2470.203,2021-1-02T14:48:42Z
2021-01-02T12:50:45Z,42.805,6.029,13.2984,4.59989,2470.18,2021-1-02T14:51:46Z
2021-01-02T12:53:48Z,42.805,6.029,13.2987,4.59990,2470.203,2021-1-02T14:54:49Z
2021-01-02T12:56:51Z,42.805,6.029,13.2983,4.59991,2470.156,2021-1-02T14:57:52Z
2021-01-02T12:59:55Z,42.805,6.029,13.2988,4.59988,2470.217,2021-1-02T15:00:55Z
2021-01-02T13:02:58Z,42.805,6.029,13.2982,4.59989,2470.194,2021-1-02T15:03:58Z
2021-01-02T13:06:01Z,42.805,6.029,13.2986,4.59988,2470.194,2021-1-02T15:07:01Z
2021-01-02T13:09:04Z,42.805,6.029,13.2988,4.59988,2470.18,2021-1-02T15:10:04Z
2021-01-02T13:12:07Z,42.805,6.029,13.2984,4.59990,2470.156,2021-1-02T15:13:07Z
2021-01-02T13:15:10Z,42.805,6.029,13.2983,4.59989,2470.217,2021-1-02T15:16:11Z
2021-01-02T13:18:13Z,42.805,6.029,13.2983,4.59991,2470.156,2021-1-02T15:19:14Z
2021-01-02T13:21:16Z,42.805,6.029,13.2986,4.59988,2470.156,2021-1-02T15:22:17Z
2021-01-02T13:24:20Z,42.805,6.029,13.2983,4.59990,2470.227,2021-1-02T15:25:20Z
2021-01-02T13:27:23Z,42.805,6.029,13.2987,4.59990,2470.18,2021-1-02T15:28:23Z
2021-01-02T13:30:26Z,42.805,6.029,13.2986,4.59988,2470.194,2021-1-02T15:31:26Z
2021-01-02T13:33:29Z,42.805,6.029,13.2984,4.59993,2470.18,2021-1-02T15:34:29Z
2021-01-02T13:36:32Z,42.805,6.029,13.2986,4.59989,2470.217,2021-1-02T15:37:32Z
2021-01-02T13:39:35Z,42.805,6.029,13.2983,4.59990,2470.147,2021-1-02T15:40:36Z
2021-01-02T13:42:38Z,42.805,6.029,13.2982,4.59988,2470.18,2021-1-02T15:43:39Z
2021-01-02T13:45:41Z,42.805,6.029,13.2984,4.59989,2470.217,2021-1-02T15:46:42Z
2021-01-02T13:48:45Z,42.805,6.029,13.2985,4.59992,2470.18,2021-1-02T15:49:45Z
2021-01-02T13:51:48Z,42.805,6.029,13.2983,4.59992,2470.18,2021-1-02T15:52:48Z
2021-01-02T13:54:51Z,42.805,6.029,13.2986,4.59991,2470.203,2021-1-02T15:55:51Z
2021-01-02T13:57:54Z,42.805,6.029,13.2982,4.59994,2470.156,2021-1-02T15:58:54Z
2021-01-02T14:00:57Z,42.805,6.029,13.2985,4.59989,2470.171,2021-1-02T16:01:57Z
2021-01-02T14:04:00Z,42.805,6.029,13.2988,4.59992,2470.171,2021-1-02T16:05:01Z
2021-01-02T14:07:03Z,42.805,6.029,13.2985,4.59989,2470.171,2021-1-02T16:08:04Z
2021-01-02T14:10:06Z,42.805,6.029,13.2984,4.59988,2470.133,2021-1-02T16:11:07Z
2021-01-02T14:13:09Z,42.805,6.029,13.2985,4.59989,2470.147,2021-1-02T16:14:10Z
2021-01-02T14:16:13Z,42.805,6.029,13.2985,4.59988,2470.156,2021-1-02T16:17:13Z
2021-01-02T14:19:16Z,42.805,6.029,13.2983,4.59988,2470.156,2021-1-02T16:20:16Z
2021-01-02T14:22:19Z,42.805,6.029,13.2985,4.59992,2470.171,2021-1-02T16:23:19Z
2021-01-02T14:25:22Z,42.805,6.029,13.2988,4.59989,2470.156,2021-1-02T16:26:22Z
2021-01-02T14:28:25Z,42.805,6.029,13.2983,4.59989,2470.194,2021-1-02T16:29:26Z
2021-01-02T14:31:28Z,42.805,6.029,13.2987,4.59989,2470.156,2021-1-02T16:32:29Z
2021-01-02T14:34:31Z,42.805,6.029,13.2988,4.59988,2470.156,2021-1-02T16:35:32Z
2021-01-02T14:37:34Z,42.805,6.029,13.2986,4.59988,2470.171,2021-1-02T16:38:35Z
2021-01-02T14:40:38Z,42.805,6.029,13.2983,4.59989,2470.156,2021-1-02T16:41:38Z
2021-01-02T14:43:41Z,42.805,6.029,13.2984,4.59996,2470.156,2021-1-02T16:44:41Z
2021-01-02T14:46:44Z,42.805,6.029,13.2983,4.59988,2470.133,2021-1-02T16:47:44Z
2021-01-02T14:49:47Z,42.805,6.029,13.2983,4.59988,2470.147,2021-1-02T16:50:47Z
2021-01-02T14:52:50Z,42.805,6.029,13.2983,4.59987,2470.171,2021-1-02T16:53:50Z
2021-01-02T14:55:53Z,42.805,6.029,13.2984,4.59989,2470.119,2021-1-02T16:56:54Z
2021-01-02T14:58:56Z,42.805,6.029,13.2986,4.59991,2470.11,2021-1-02T16:59:57Z
2021-01-02T15:01:59Z,42.805,6.029,13.2986,4.59991,2470.133,2021-1-02T17:03:00Z
2021-01-02T15:05:03Z,42.805,6.029,13.2981,4.59989,2470.147,2021-1-02T17:06:03Z
2021-01-02T15:08:06Z,42.805,6.029,13.2986,4.59989,2470.147,2021-1-02T17:09:06Z
2021-01-02T15:11:09Z,42.805,6.029,13.2988,4.59994,2470.147,2021-1-02T17:12:09Z
2021-01-02T15:14:12Z,42.805,6.029,13.2985,4.59988,2470.133,2021-1-02T17:15:12Z